Weather reports worldwide

Advertisment
Drumnadrochit, United Kingdom (99132): temperature & dewpoint: 19.05.2018 04:00:00 - 25.05.2018 04:00:00 (BST)Drumnadrochit, United Kingdom (99132): precipitation: 19.05.2018 04:00:00 - 25.05.2018 04:00:00 (BST)
Date & Time tt [°C] td [°C] rr [mm]
25.05.2018 04:00:00 7,5 7,1 0,0
25.05.2018 03:00:00 8,9 8,8 0,0
25.05.2018 02:00:00 9,7 9,6 0,0
25.05.2018 01:00:00 9,5 9,3 0,0
25.05.2018 00:00:00 9,2 8,4 0,0
24.05.2018 23:00:00 10,7 9,6 0,0
24.05.2018 22:00:00 11,9 10,0 0,0
24.05.2018 21:00:00 14,8 11,1 0,0
24.05.2018 20:00:00 16,1 10,4 0,0
24.05.2018 19:00:00 19,0 10,7 0,0
24.05.2018 18:00:00 20,2 9,2 0,0
24.05.2018 17:00:00 22,8 6,9 0,0
24.05.2018 16:00:00 22,9 7,0 0,0
24.05.2018 15:00:00 22,6 7,1 0,0
24.05.2018 14:00:00 20,4 9,2 0,0
24.05.2018 13:00:00 17,5 9,3 0,0
24.05.2018 12:00:00 15,1 9,8 0,0
24.05.2018 11:00:00 11,2 8,3 0,0
24.05.2018 10:00:00 9,0 7,9 0,0
24.05.2018 09:00:00 7,4 7,4 0,0
24.05.2018 08:00:00 6,8 6,8 0,0
24.05.2018 07:00:00 4,7 4,7 0,0
24.05.2018 06:00:00 2,2 2,2 0,0
24.05.2018 05:00:00 1,0 0,8 0,0
24.05.2018 04:00:00 2,0 1,8 0,0
24.05.2018 03:00:00 3,0 2,9 0,0
24.05.2018 02:00:00 2,7 2,3 0,0
24.05.2018 01:00:00 4,4 4,0 0,0
24.05.2018 00:00:00 5,2 4,5 0,0
23.05.2018 23:00:00 6,6 5,9 0,0
23.05.2018 22:00:00 8,2 6,5 0,0
23.05.2018 21:00:00 11,1 7,8 0,0
23.05.2018 20:00:00 13,2 8,0 0,0
23.05.2018 19:00:00 14,9 7,0 0,0
23.05.2018 18:00:00 17,0 8,2 0,0
23.05.2018 17:00:00 17,0 8,0 0,0
23.05.2018 16:00:00 17,7 9,0 0,0
23.05.2018 15:00:00 17,7 9,0 0,2
23.05.2018 14:00:00 - - 0,0
23.05.2018 13:00:00 16,4 7,9 0,0
23.05.2018 12:00:00 15,2 7,7 0,0
23.05.2018 11:00:00 13,6 7,5 0,0
23.05.2018 10:00:00 12,5 8,0 0,0
23.05.2018 09:00:00 11,3 8,2 0,0
23.05.2018 08:00:00 9,5 7,4 0,0
23.05.2018 07:00:00 8,6 6,9 0,0
23.05.2018 06:00:00 7,7 7,3 0,0
23.05.2018 05:00:00 6,9 6,7 0,0
23.05.2018 04:00:00 6,1 5,4 0,0
23.05.2018 03:00:00 7,8 6,2 0,0
23.05.2018 02:00:00 8,1 6,5 0,0
23.05.2018 01:00:00 8,2 6,6 0,0
23.05.2018 00:00:00 8,1 6,5 0,0
22.05.2018 23:00:00 8,4 6,6 0,0
22.05.2018 22:00:00 8,7 6,4 0,0
22.05.2018 21:00:00 9,1 6,5 0,0
22.05.2018 20:00:00 9,4 6,3 0,0
22.05.2018 19:00:00 9,6 6,4 0,0
22.05.2018 18:00:00 9,7 6,8 0,0
22.05.2018 17:00:00 9,3 6,6 0,0
22.05.2018 16:00:00 9,3 6,5 0,0
22.05.2018 15:00:00 9,6 6,7 0,0
22.05.2018 14:00:00 9,7 6,8 0,0
22.05.2018 13:00:00 9,4 6,4 0,0
22.05.2018 12:00:00 9,0 5,9 0,0
22.05.2018 11:00:00 9,0 6,4 0,0
22.05.2018 10:00:00 8,1 6,3 0,0
22.05.2018 09:00:00 7,8 6,1 0,0
22.05.2018 08:00:00 7,5 5,7 0,0
22.05.2018 07:00:00 6,7 5,9 0,0
22.05.2018 06:00:00 6,1 5,4 0,2
22.05.2018 05:00:00 5,9 5,0 0,4
22.05.2018 04:00:00 6,2 4,9 0,0
22.05.2018 03:00:00 6,2 5,6 0,0
22.05.2018 02:00:00 5,9 5,6 0,0
22.05.2018 01:00:00 5,8 5,4 0,6
22.05.2018 00:00:00 6,0 5,3 1,4
21.05.2018 23:00:00 6,2 5,3 1,0
21.05.2018 22:00:00 6,7 5,4 1,6
21.05.2018 21:00:00 7,5 6,4 0,6
21.05.2018 20:00:00 7,9 7,4 0,4
21.05.2018 19:00:00 8,4 7,5 0,0
21.05.2018 18:00:00 8,8 7,8 0,6
21.05.2018 17:00:00 9,0 8,2 0,4
21.05.2018 16:00:00 9,6 8,6 0,8
21.05.2018 15:00:00 10,1 9,1 0,6
21.05.2018 14:00:00 11,4 9,3 0,2
21.05.2018 13:00:00 13,3 10,8 0,0
21.05.2018 12:00:00 13,7 10,1 0,0
21.05.2018 11:00:00 13,0 10,4 0,0
21.05.2018 10:00:00 13,5 11,5 0,0
21.05.2018 09:00:00 12,6 11,8 0,0
21.05.2018 08:00:00 11,7 11,6 0,2
21.05.2018 07:00:00 11,3 11,1 0,0
21.05.2018 06:00:00 11,5 11,2 0,4
21.05.2018 05:00:00 11,7 11,3 0,0
21.05.2018 04:00:00 11,8 11,2 0,2
21.05.2018 03:00:00 12,4 11,5 0,2
21.05.2018 02:00:00 12,5 11,2 0,0
21.05.2018 01:00:00 13,2 10,7 0,0
21.05.2018 00:00:00 13,7 10,4 0,0
20.05.2018 23:00:00 14,5 10,1 0,0
20.05.2018 22:00:00 14,6 10,0 0,0
20.05.2018 21:00:00 14,8 10,2 0,0
20.05.2018 20:00:00 15,2 10,3 0,0
20.05.2018 19:00:00 15,6 10,7 0,0
20.05.2018 18:00:00 15,8 10,9 0,0
20.05.2018 17:00:00 15,6 11,4 0,0
20.05.2018 16:00:00 15,7 10,9 0,0
20.05.2018 15:00:00 15,7 11,3 0,0
20.05.2018 14:00:00 16,6 10,9 0,0
20.05.2018 13:00:00 16,4 10,3 0,0
20.05.2018 12:00:00 15,9 9,6 0,0
20.05.2018 11:00:00 15,9 9,0 0,0
20.05.2018 10:00:00 15,3 8,5 0,0
20.05.2018 09:00:00 15,6 8,4 0,0
20.05.2018 08:00:00 15,1 8,7 0,0
20.05.2018 07:00:00 13,9 7,3 0,0
20.05.2018 06:00:00 13,1 7,3 0,0
20.05.2018 05:00:00 13,2 7,1 0,0
20.05.2018 04:00:00 13,9 7,3 0,0
20.05.2018 03:00:00 14,2 7,5 0,0
20.05.2018 02:00:00 14,5 7,2 0,0
20.05.2018 01:00:00 14,8 7,0 0,0
20.05.2018 00:00:00 14,4 6,6 0,0
19.05.2018 23:00:00 14,3 5,1 0,0
19.05.2018 22:00:00 15,4 4,1 0,0
19.05.2018 21:00:00 16,1 5,4 0,0
19.05.2018 20:00:00 17,0 6,4 0,0
19.05.2018 19:00:00 18,0 6,9 0,0
19.05.2018 18:00:00 18,8 6,9 0,0
19.05.2018 17:00:00 19,6 6,8 0,0
19.05.2018 16:00:00 20,2 7,2 0,0
19.05.2018 15:00:00 19,7 7,4 0,0
19.05.2018 14:00:00 19,4 7,2 0,0
19.05.2018 13:00:00 18,5 7,5 0,0
19.05.2018 12:00:00 17,7 8,1 0,0
19.05.2018 11:00:00 17,8 9,6 0,0
19.05.2018 10:00:00 16,7 8,0 0,0
19.05.2018 09:00:00 14,6 8,0 0,0
19.05.2018 08:00:00 13,7 8,2 0,0
19.05.2018 07:00:00 10,9 8,8 0,0
19.05.2018 06:00:00 9,1 8,6 0,0
19.05.2018 05:00:00 7,8 5,7 0,0
19.05.2018 04:00:00 11,6 7,7 0,0

tt = temperature
td = dewpoint
rr = precipitation

Next stations